STARLINK-4588, 53641

Orbit data source: Space-Track

STARLINK-4588, 53641 is a payload satellite owned by SpaceX/Seattle (US) in LEO that was launched on Sun, 28 Aug 2022 UTC via an FALCON 9 launch vehicle from the Air Force Eastern Test Range (AFETR). Payload-class satellites include a variety of spacecraft equipped with specific instruments for various scientific and technological missions. These include communications satellites like Starlink; space stations such as the ISS; scientific satellites like the Hubble; Earth observation satellites from companies like Planet Labs, Umbra, and HawkEye 360; GPS; miniature CubeSats for education and research; and military/defense satellites.

Loading next visibility...
Identifier
53641, 2022-104BF
Orbit
LEO
Country
Flag of USUS
Related business
Manufacturer
SpaceX/Seattle
Mission
Operational Commercial Communications
Bus & Motor
STARLINK, Unknown motor
Mass
300 kg wet, ~290 kg dry
Launch date (UTC)
2022-08-28 (4 years ago)
Launch vehicle
FALCON 9
Launch site
Air Force Eastern Test Range (AFETR)
Object type
Payload
Rocket body
Debris
Shape & HBR
Box + 1 Pan, 10.1 m
Radar Cross Section
13.562 m², Large (>1 m²)

Expand to show TLE details & history
Last TLE update: 3 days ago

TLE from 3 days ago
0 STARLINK-4588
1 53641U 22104BF  26170.60983860 -.00000291  00000-0 -20316-6 0  9996
2 53641  53.1608 126.3369 0001342  91.0648 269.0497 15.08836657211619
Epoch: 2026-06-19T14:38Z
TLE epoch observation values (Epoch: 2026-06-19T14:38:10.055Z)
Latitude
-0.00001°
Longitude
-1.04136°
Altitude
540.661 km
Speed
7.593 km/s
True Right ascension
08h 25m 20s
True Declination
0° 00' 00"
Sunlit
Object was in daylight at epoch
Visualization orbit readout
Latitude
Unknown
Longitude
Unknown
Altitude
Unknown
Speed
Unknown
Apparent Right ascension
Unknown
Apparent Declination
Unknown
Sunlit
N/A
Visualization observer readout
Local Sidereal Time
21:35:13
Azimuth
Unknown
Elevation
Unknown
Doppler factor
Unknown
Orbital elements
Apogee altitude
540.936 km
Perigee altitude
539.079 km
Semi-major axis
6,918.145 km
Eccentricity
0.00013
Inclination
53.1608°
RAAN
126.3369°
Arg. of periapsis
91.0648°
True anomaly
269.03432°
Mean anomaly
269.0497°
Eccentric anomaly
269.04201°
Mean motion
3.77189 °/min
Orbital period
95.44 mins
BSTAR
-2.0316e-7
Loading maneuver chart data...
Computing Atmospheric mass density...
Loading historical data...
Loading historical data...
Loading historical data...
Loading historical data...
Loading historical data...
Loading historical data...
Loading historical data...

Documentation

Showing up to 5 results
|